Terminal Aerodrome Forecast
Issued by NWS Caribou, ME

Current Version | Previous Version | Text Only | Print | Product List | Glossary On
Versions: 1 2 3 4 5 6 7 8 9 10 11 12 13 14 15 16 17 18 19 20 21 22 23
222
FTUS41 KCAR 301120
TAFBGR
TAF
KBGR 301120Z 3012/3112 17005KT 3SM -SHRA BR OVC003
     FM301500 21007KT P6SM OVC008
     FM301700 20007KT P6SM SCT008 BKN015
     FM302000 20010KT P6SM SCT035 BKN070
     FM310200 21006KT 5SM BR BKN003=

USA.gov is the U.S. government's official web portal to all federal, state and local government web resources and services.